When you browse on this site, cookies collect data to enhance your experience and personalize the content and advertising you see.
Visit our Privacy Policy to learn more. By continuing to use the site, you agree to this use of cookies and data.
  • In Czech Republic
  • List of Countries
  • For 7 days
  • Water Temperature
  • Weather Map
  • Weather Widgets
  • user-avatar
    Login

    Hourly Weather Bulnes

    Today, 6 April, Monday

    Time Temperature Precipitation Wind Pressure Humidity
    00:00 +10°C° 0 mm 5 mps 758 mmHg 69%
    01:00 +10°C° 0 mm 5 mps 758 mmHg 73%
    02:00 +9°C° 0 mm 5 mps 758 mmHg 75%
    03:00 +8°C° 0 mm 4 mps 757 mmHg 77%
    04:00 +8°C° 0 mm 4 mps 757 mmHg 79%
    05:00 +8°C° 0 mm 4 mps 757 mmHg 74%
    06:00 +8°C° 0 mm 4 mps 757 mmHg 68%
    07:00 +8°C° 0 mm 4 mps 757 mmHg 62%
    08:00 +12°C° 0 mm 5 mps 757 mmHg 51%
    09:00 +14°C° 0 mm 5 mps 756 mmHg 39%
    10:00 +17°C° 0 mm 5 mps 756 mmHg 27%
    11:00 +20°C° 0 mm 5 mps 755 mmHg 24%
    12:00 +23°C° 0 mm 5 mps 755 mmHg 20%
    13:00 +26°C° 0 mm 5 mps 755 mmHg 17%
    14:00 +26°C° 0 mm 5 mps 754 mmHg 17%
    15:00 +26°C° 0 mm 5 mps 754 mmHg 16%
    16:00 +25°C° 0 mm 5 mps 753 mmHg 16%
    17:00 +21°C° 0 mm 5 mps 754 mmHg 22%
    18:00 +17°C° 0 mm 5 mps 754 mmHg 27%
    19:00 +14°C° 0 mm 4 mps 754 mmHg 33%
    20:00 +13°C° 0 mm 4 mps 754 mmHg 40%
    21:00 +12°C° 0 mm 4 mps 754 mmHg 47%
    22:00 +11°C° 0 mm 3 mps 755 mmHg 54%
    23:00 +10°C° 0 mm 3 mps 754 mmHg 58%

    Tomorrow, 7 April, Tuesday

    Time Temperature Precipitation Wind Pressure Humidity
    00:00 +9°C° 0 mm 3 mps 754 mmHg 62%
    01:00 +8°C° 0 mm 3 mps 753 mmHg 66%
    02:00 +8°C° 0 mm 3 mps 753 mmHg 68%
    03:00 +7°C° 0 mm 2 mps 753 mmHg 69%
    04:00 +7°C° 0 mm 2 mps 753 mmHg 71%
    05:00 +7°C° 0 mm 2 mps 753 mmHg 69%
    06:00 +7°C° 0 mm 2 mps 753 mmHg 67%
    07:00 +8°C° 0 mm 2 mps 753 mmHg 64%
    08:00 +13°C° 0 mm 2 mps 753 mmHg 51%
    09:00 +17°C° 0 mm 2 mps 752 mmHg 39%
    10:00 +21°C° 0 mm 3 mps 752 mmHg 26%
    11:00 +25°C° 0 mm 3 mps 752 mmHg 21%
    12:00 +28°C° 0 mm 3 mps 751 mmHg 17%
    13:00 +31°C° 0 mm 2 mps 751 mmHg 13%
    14:00 +31°C° 0 mm 2 mps 751 mmHg 12%
    15:00 +31°C° 0 mm 2 mps 751 mmHg 12%
    16:00 +32°C° 0 mm 2 mps 751 mmHg 12%
    17:00 +27°C° 0 mm 2 mps 751 mmHg 19%
    18:00 +23°C° 0 mm 2 mps 751 mmHg 25%
    19:00 +18°C° 0 mm 2 mps 752 mmHg 32%
    20:00 +17°C° 0 mm 2 mps 752 mmHg 36%
    21:00 +15°C° 0 mm 1 mps 752 mmHg 40%
    22:00 +14°C° 0 mm 1 mps 752 mmHg 44%
    23:00 +13°C° 0 mm 1 mps 752 mmHg 48%

    Day after tomorrow, 8 April, Wednesday

    Time Temperature Precipitation Wind Pressure Humidity
    00:00 +13°C° 0 mm 1 mps 752 mmHg 51%
    01:00 +12°C° 0 mm 1 mps 752 mmHg 54%
    02:00 +12°C° 0 mm 1 mps 751 mmHg 56%
    03:00 +11°C° 0 mm 1 mps 751 mmHg 58%
    04:00 +11°C° 0 mm 1 mps 751 mmHg 60%
    05:00 +11°C° 0 mm 1 mps 751 mmHg 57%
    06:00 +11°C° 0 mm 1 mps 752 mmHg 55%
    07:00 +11°C° 0 mm 0 mps 752 mmHg 52%
    08:00 +16°C° 0 mm 1 mps 752 mmHg 42%
    09:00 +22°C° 0 mm 1 mps 752 mmHg 32%
    10:00 +26°C° 0 mm 1 mps 752 mmHg 21%
    11:00 +28°C° 0 mm 1 mps 752 mmHg 18%
    12:00 +31°C° 0 mm 1 mps 751 mmHg 15%
    13:00 +34°C° 0 mm 2 mps 751 mmHg 13%
    14:00 +32°C° 0 mm 2 mps 751 mmHg 15%
    15:00 +31°C° 0 mm 3 mps 752 mmHg 17%
    16:00 +30°C° 0 mm 4 mps 752 mmHg 19%
    17:00 +25°C° 0 mm 3 mps 752 mmHg 30%
    18:00 +19°C° 0 mm 2 mps 752 mmHg 40%
    19:00 +15°C° 0 mm 1 mps 753 mmHg 51%
    20:00 +14°C° 0 mm 1 mps 753 mmHg 54%
    21:00 +13°C° 0 mm 1 mps 753 mmHg 58%
    22:00 +12°C° 0 mm 1 mps 753 mmHg 62%
    23:00 +12°C° 0 mm 1 mps 753 mmHg 64%

    9 April, Thursday

    Time Temperature Precipitation Wind Pressure Humidity
    00:00 +10°C° 0 mm 0 mps 753 mmHg 66%
    01:00 +10°C° 0 mm 0 mps 753 mmHg 68%
    02:00 +9°C° 0 mm 0 mps 753 mmHg 69%
    03:00 +9°C° 0 mm 0 mps 752 mmHg 70%
    04:00 +9°C° 0 mm 0 mps 752 mmHg 70%
    05:00 +9°C° 0 mm 0 mps 753 mmHg 68%
    06:00 +10°C° 0 mm 0 mps 753 mmHg 65%
    07:00 +10°C° 0 mm 0 mps 753 mmHg 63%
    08:00 +14°C° 0 mm 0 mps 753 mmHg 52%
    09:00 +20°C° 0 mm 1 mps 753 mmHg 40%
    10:00 +24°C° 0 mm 1 mps 753 mmHg 29%
    11:00 +26°C° 0 mm 1 mps 753 mmHg 25%
    12:00 +28°C° 0 mm 2 mps 753 mmHg 22%
    13:00 +30°C° 0 mm 2 mps 753 mmHg 18%
    14:00 +29°C° 0 mm 3 mps 753 mmHg 22%
    15:00 +27°C° 0 mm 3 mps 753 mmHg 26%
    16:00 +26°C° 0 mm 4 mps 753 mmHg 30%
    17:00 +21°C° 0 mm 3 mps 753 mmHg 49%
    18:00 +17°C° 0 mm 2 mps 753 mmHg 68%
    19:00 +12°C° 0 mm 2 mps 754 mmHg 86%
    20:00 +12°C° 0 mm 1 mps 754 mmHg 89%
    21:00 +11°C° 0 mm 1 mps 754 mmHg 92%
    22:00 +10°C° 0 mm 1 mps 754 mmHg 95%
    23:00 +10°C° 0 mm 1 mps 754 mmHg 95%

    10 April, Friday

    Time Temperature Precipitation Wind Pressure Humidity
    00:00 +9°C° 0 mm 0 mps 754 mmHg 96%
    01:00 +8°C° 0 mm 0 mps 754 mmHg 96%
    02:00 +8°C° 0 mm 0 mps 754 mmHg 96%
    03:00 +9°C° 0 mm 1 mps 753 mmHg 97%
    04:00 +9°C° 0 mm 1 mps 753 mmHg 97%
    05:00 +9°C° 0 mm 1 mps 753 mmHg 97%
    06:00 +9°C° 0 mm 1 mps 753 mmHg 96%
    07:00 +10°C° 0 mm 1 mps 754 mmHg 95%
    08:00 +13°C° 0 mm 2 mps 754 mmHg 81%
    09:00 +16°C° 0 mm 2 mps 753 mmHg 66%
    10:00 +19°C° 0 mm 2 mps 753 mmHg 51%
    11:00 +23°C° 0 mm 2 mps 753 mmHg 43%
    12:00 +25°C° 0 mm 2 mps 753 mmHg 34%
    13:00 +28°C° 0 mm 3 mps 752 mmHg 25%
    14:00 +27°C° 0 mm 3 mps 752 mmHg 24%
    15:00 +27°C° 0 mm 3 mps 752 mmHg 23%
    16:00 +27°C° 0 mm 3 mps 752 mmHg 23%
    17:00 +23°C° 0 mm 2 mps 752 mmHg 39%
    18:00 +19°C° 0 mm 2 mps 752 mmHg 56%
    19:00 +15°C° 0 mm 2 mps 753 mmHg 73%
    20:00 +15°C° 0 mm 2 mps 753 mmHg 75%
    21:00 +14°C° 0 mm 2 mps 753 mmHg 77%
    22:00 +14°C° 0 mm 1 mps 753 mmHg 79%
    23:00 +14°C° 0 mm 2 mps 753 mmHg 82%

    11 April, Saturday

    Time Temperature Precipitation Wind Pressure Humidity
    00:00 +14°C° 0 mm 2 mps 753 mmHg 85%
    01:00 +14°C° 0 mm 2 mps 753 mmHg 88%
    02:00 +13°C° 0 mm 2 mps 753 mmHg 89%
    03:00 +13°C° 0 mm 2 mps 753 mmHg 90%
    04:00 +13°C° 0 mm 2 mps 753 mmHg 91%
    05:00 +13°C° 0 mm 2 mps 753 mmHg 89%
    06:00 +12°C° 0 mm 2 mps 753 mmHg 87%
    07:00 +12°C° 0 mm 2 mps 754 mmHg 84%
    08:00 +15°C° 0 mm 2 mps 754 mmHg 73%
    09:00 +18°C° 0 mm 2 mps 754 mmHg 61%
    10:00 +21°C° 0 mm 2 mps 754 mmHg 50%
    11:00 +23°C° 0 mm 2 mps 754 mmHg 43%
    12:00 +25°C° 0 mm 2 mps 753 mmHg 35%
    13:00 +27°C° 0 mm 2 mps 753 mmHg 28%
    14:00 +26°C° 0 mm 2 mps 753 mmHg 28%
    15:00 +26°C° 0 mm 2 mps 753 mmHg 27%
    16:00 +25°C° 0 mm 2 mps 753 mmHg 27%
    17:00 +21°C° 0 mm 2 mps 754 mmHg 35%
    18:00 +18°C° 0 mm 2 mps 754 mmHg 43%
    19:00 +15°C° 0 mm 2 mps 754 mmHg 51%
    20:00 +14°C° 0 mm 2 mps 754 mmHg 54%
    21:00 +13°C° 0 mm 2 mps 754 mmHg 57%
    22:00 +11°C° 0 mm 3 mps 754 mmHg 59%
    23:00 +10°C° 0 mm 2 mps 754 mmHg 65%
    Show more